Hillsdale, MI

2:53 PM EST on November 12, 2019 (GMT -0500)
Hillsdale Municipal

Weather History for KJYM - October, 2019

Change the Weather History Date:

Monday, October 21, 2019

  Actual Average Record
Temperature  
Mean Temperature 54 °F -  
Max Temperature 60 °F 56 °F 85 °F (1953)
Min Temperature 48 °F 36 °F 15 °F (1952)
Degree Days  
Heating Degree Days 11    
Growing Degree Days 4 (Base 50)    
Moisture  
Dew Point 52 °F    
Average Humidity 85    
Maximum Humidity 95    
Minimum Humidity 68    
Precipitation  
Precipitation 0.17 in - - ()
Sea Level Pressure  
Sea Level Pressure 29.77 in    
Wind  
Wind Speed 9 mph ()    
Max Wind Speed 18 mph    
Max Gust Speed 39 mph    
Visibility 9.0 miles    
Events Rain    
Averages and records for this station are not official NWS values.
T = Trace of Precipitation, MM = Missing Value Source: Averaged Metar Reports

Daily Weather History Graph

Daily Weather History Graph

Search for Another Location

Airport or City:

Astronomy

Oct. 21, 2019 Rise Set
Actual Time 7:57 AM EDT 6:47 PM EDT
Civil Twilight 7:29 AM EDT 7:16 PM EDT
Nautical Twilight 6:56 AM EDT 7:48 PM EDT
Astronomical Twilight 6:24 AM EDT 8:20 PM EDT
Moon No Moon Rise 3:18 PM EDT (10/21)
Length of Visible Light 11h 47m
Length of Day
10h 50m
Waning Gibbous, 48% of the Moon is Illuminated
Oct 21
Waning Gibbous
Oct 27
New
Nov 4
First Quarter
Nov 12
Full
Nov 19
Last Quarter

Hourly Weather History & Observations

Time (EDT) Temp. Dew Point Humidity Pressure Visibility Wind Dir Wind Speed Gust Speed Precip Events Conditions
12:15 AM 48.7 °F 46.9 °F 93% 29.96 in 10.0 mi East 3.5 mph - N/A   Scattered Clouds
12:39 AM 50.7 °F 46.8 °F 86% 29.95 in 10.0 mi ESE 4.6 mph - N/A   Overcast
12:57 AM 49.1 °F 46.0 °F 89% 29.94 in 10.0 mi ESE 3.5 mph - N/A   Mostly Cloudy
1:15 AM 50.9 °F 45.9 °F 83% 29.94 in 10.0 mi ESE 3.5 mph - N/A   Scattered Clouds
1:35 AM 53.1 °F 46.0 °F 77% 29.94 in 10.0 mi ESE 4.6 mph - N/A   Mostly Cloudy
1:55 AM 54.1 °F 46.6 °F 76% 29.94 in 10.0 mi ESE 6.9 mph - N/A   Overcast
1:59 AM 54.5 °F 46.6 °F 75% 29.94 in 10.0 mi ESE 5.8 mph - N/A   Overcast
2:17 AM 54.9 °F 46.6 °F 74% 29.93 in 10.0 mi ESE 5.8 mph - N/A   Overcast
2:35 AM 55.4 °F 46.2 °F 71% 29.93 in 10.0 mi ESE 6.9 mph - N/A   Overcast
2:55 AM 55.9 °F 46.0 °F 69% 29.93 in 10.0 mi East 9.2 mph - N/A   Overcast
2:56 AM 55.9 °F 46.0 °F 69% 29.93 in 10.0 mi East 8.1 mph - N/A   Overcast
3:15 AM 55.8 °F 45.3 °F 68% 29.92 in 10.0 mi East 10.4 mph - N/A   Overcast
3:20 AM 55.4 °F 45.1 °F 68% 29.92 in 10.0 mi East 11.5 mph - N/A   Overcast
3:38 AM 54.9 °F 45.3 °F 70% 29.91 in 10.0 mi East 11.5 mph - N/A   Overcast
3:56 AM 55.0 °F 44.6 °F 68% 29.92 in 10.0 mi East 11.5 mph - N/A   Overcast
4:15 AM 54.7 °F 44.6 °F 69% 29.91 in 10.0 mi East 8.1 mph - N/A   Overcast
4:16 AM 54.7 °F 44.6 °F 69% 29.91 in 10.0 mi East 8.1 mph - N/A   Overcast
4:35 AM 54.7 °F 45.0 °F 70% 29.93 in 10.0 mi ESE 8.1 mph - N/A   Overcast
4:36 AM 54.7 °F 45.0 °F 70% 29.93 in 10.0 mi ESE 6.9 mph - N/A   Overcast
4:59 AM 54.0 °F 45.1 °F 72% 29.93 in 10.0 mi ESE 9.2 mph - N/A   Overcast
5:17 AM 53.6 °F 45.3 °F 74% 29.93 in 10.0 mi East 6.9 mph - N/A   Overcast
5:35 AM 52.9 °F 45.7 °F 77% 29.91 in 10.0 mi East 9.2 mph - N/A   Overcast
5:55 AM 53.6 °F 45.5 °F 74% 29.91 in 10.0 mi East 6.9 mph - N/A   Overcast
5:56 AM 53.6 °F 45.5 °F 74% 29.91 in 10.0 mi East 6.9 mph - N/A   Overcast
6:15 AM 53.6 °F 45.9 °F 75% 29.91 in 10.0 mi ESE 8.1 mph - N/A   Overcast
6:20 AM 53.8 °F 46.0 °F 75% 29.91 in 10.0 mi East 5.8 mph - N/A   Overcast
6:38 AM 54.3 °F 46.6 °F 75% 29.90 in 10.0 mi East 6.9 mph - N/A   Overcast
7:15 AM 54.0 °F 46.4 °F 76% 29.87 in 10.0 mi East 12.7 mph 17.3 mph N/A   Overcast
7:35 AM 53.8 °F 45.7 °F 74% 29.86 in 10.0 mi East 10.4 mph - N/A   Overcast
7:36 AM 53.6 °F 45.7 °F 75% 29.86 in 10.0 mi East 9.2 mph - N/A   Overcast
7:59 AM 53.1 °F 46.0 °F 77% 29.86 in 10.0 mi ESE 10.4 mph 17.3 mph N/A   Mostly Cloudy
8:17 AM 53.1 °F 46.8 °F 79% 29.86 in 10.0 mi ESE 12.7 mph 16.1 mph N/A   Mostly Cloudy
8:35 AM 53.1 °F 47.3 °F 81% 29.85 in 10.0 mi ESE 13.8 mph 19.6 mph N/A   Overcast
8:55 AM 52.9 °F 47.8 °F 83% 29.85 in 10.0 mi ESE 10.4 mph - N/A   Overcast
8:56 AM 52.9 °F 47.8 °F 83% 29.85 in 10.0 mi ESE 10.4 mph - N/A   Overcast
9:15 AM 52.9 °F 48.4 °F 85% 29.85 in 10.0 mi ESE 10.4 mph 16.1 mph N/A   Overcast
9:38 AM 53.6 °F 49.1 °F 85% 29.85 in 10.0 mi SE 10.4 mph 18.4 mph N/A   Overcast
9:56 AM 54.3 °F 50.0 °F 85% 29.83 in 10.0 mi ESE 11.5 mph 18.4 mph N/A   Overcast
10:15 AM 55.2 °F 50.7 °F 85% 29.82 in 10.0 mi ESE 15.0 mph 19.6 mph N/A   Mostly Cloudy
10:35 AM 55.4 °F 51.1 °F 85% 29.80 in 10.0 mi ESE 12.7 mph 18.4 mph N/A   Scattered Clouds
10:36 AM 55.4 °F 51.1 °F 85% 29.80 in 10.0 mi ESE 12.7 mph 19.6 mph N/A   Scattered Clouds
10:59 AM 55.9 °F 51.8 °F 86% 29.80 in 10.0 mi SE 16.1 mph 23.0 mph N/A   Clear
11:17 AM 56.5 °F 52.2 °F 85% 29.81 in 10.0 mi SE 11.5 mph 18.4 mph N/A   Mostly Cloudy
11:35 AM 57.2 °F 53.1 °F 86% 29.79 in 10.0 mi SE 15.0 mph 23.0 mph N/A   Overcast
11:55 AM 57.7 °F 53.6 °F 86% 29.79 in 10.0 mi SSE 10.4 mph 23.0 mph N/A   Overcast
12:15 PM 57.6 °F 54.0 °F 88% 29.79 in 10.0 mi SE 15.0 mph 25.3 mph N/A   Light Drizzle
12:20 PM 57.6 °F 54.0 °F 88% 29.78 in 10.0 mi SE 13.8 mph 25.3 mph N/A   Overcast
12:38 PM 57.7 °F 54.5 °F 89% 29.77 in 10.0 mi SE 12.7 mph 23.0 mph N/A   Overcast
12:56 PM 57.7 °F 54.5 °F 89% 29.74 in 10.0 mi SE 16.1 mph 23.0 mph N/A Rain Rain
1:35 PM 57.6 °F 55.4 °F 92% 29.70 in 7.0 mi SE 12.7 mph 27.6 mph 0.01 in Rain Light Rain
1:36 PM 57.6 °F 55.4 °F 92% 29.70 in 7.0 mi SE 12.7 mph 27.6 mph 0.01 in Rain Light Rain
1:59 PM 57.6 °F 55.6 °F 93% 29.71 in 7.0 mi SE 12.7 mph 20.7 mph 0.02 in Rain Light Rain
2:17 PM 57.4 °F 55.4 °F 93% 29.70 in 3.0 mi SE 12.7 mph 21.9 mph 0.02 in Rain Rain
2:35 PM 57.4 °F 55.4 °F 93% 29.68 in 5.0 mi SE 17.3 mph 26.5 mph 0.03 in Rain Light Rain
2:55 PM 57.0 °F 55.0 °F 93% 29.66 in 3.0 mi SE 16.1 mph 25.3 mph 0.04 in Rain Light Rain
2:56 PM 57.0 °F 55.0 °F 93% 29.66 in 3.0 mi SE 12.7 mph 25.3 mph 0.04 in Rain Light Rain
3:15 PM 56.8 °F 54.9 °F 93% 29.65 in 10.0 mi SE 12.7 mph 26.5 mph 0.01 in Rain Light Rain
3:20 PM 56.8 °F 54.9 °F 93% 29.66 in 10.0 mi SE 10.4 mph 26.5 mph 0.01 in Rain Light Rain
3:38 PM 57.0 °F 55.0 °F 93% 29.65 in 5.0 mi SSE 12.7 mph 17.3 mph 0.01 in Rain Light Rain
3:56 PM 57.0 °F 55.0 °F 93% 29.65 in 5.0 mi SE 13.8 mph 23.0 mph 0.01 in   Light Drizzle
4:15 PM 56.8 °F 55.4 °F 95% 29.64 in 3.0 mi SE 16.1 mph 21.9 mph N/A   Overcast
4:16 PM 56.8 °F 55.4 °F 95% 29.63 in 3.0 mi SE 13.8 mph 21.9 mph N/A   Overcast
4:35 PM 57.2 °F 55.4 °F 94% 29.63 in 10.0 mi SSE 11.5 mph 20.7 mph N/A   Overcast
4:59 PM 57.7 °F 55.8 °F 93% 29.64 in 10.0 mi South 11.5 mph 20.7 mph N/A   Overcast
5:17 PM 58.3 °F 56.3 °F 93% 29.64 in 10.0 mi South 11.5 mph 23.0 mph N/A   Overcast
5:35 PM 59.0 °F 56.3 °F 91% 29.62 in 10.0 mi SSE 9.2 mph 21.9 mph N/A   Overcast
5:36 PM 59.0 °F 56.3 °F 91% 29.63 in 10.0 mi SSE 10.4 mph 21.9 mph N/A   Overcast
5:55 PM 59.4 °F 56.8 °F 91% 29.63 in 10.0 mi SSE 11.5 mph 17.3 mph N/A   Overcast
6:19 PM 60.1 °F 57.2 °F 90% 29.61 in 10.0 mi SSE 12.7 mph 20.7 mph N/A Rain Light Rain
6:37 PM 60.1 °F 57.6 °F 91% 29.60 in 10.0 mi SSE 12.7 mph 19.6 mph N/A   Drizzle
6:55 PM 59.9 °F 57.7 °F 93% 29.60 in 10.0 mi SSE 10.4 mph 18.4 mph N/A Rain Light Rain
7:15 PM 59.9 °F 58.1 °F 94% 29.60 in 10.0 mi SSE 8.1 mph 17.3 mph N/A   Overcast
7:16 PM 59.9 °F 58.1 °F 94% 29.60 in 10.0 mi SSE 9.2 mph - N/A   Overcast
7:39 PM 60.3 °F 58.5 °F 94% 29.60 in 5.0 mi SSE 9.2 mph 17.3 mph 0.03 in Rain Rain
7:57 PM 60.3 °F 58.5 °F 94% 29.61 in 7.0 mi SSE 11.5 mph 18.4 mph 0.04 in Rain Rain
8:15 PM 60.8 °F 58.3 °F 91% 29.62 in 5.0 mi South 18.4 mph 39.1 mph 0.02 in Rain Rain
8:35 PM 59.9 °F 57.6 °F 92% 29.63 in 7.0 mi South 16.1 mph 24.2 mph 0.04 in Rain Light Rain
8:36 PM 59.9 °F 57.6 °F 92% 29.63 in 7.0 mi South 15.0 mph 24.2 mph 0.04 in Rain Light Rain
8:55 PM 59.4 °F 57.4 °F 93% 29.62 in 5.0 mi SSW 13.8 mph 20.7 mph 0.05 in Rain Light Rain
9:18 PM 59.4 °F 57.6 °F 94% 29.62 in 5.0 mi South 15.0 mph 24.2 mph 0.01 in Rain Rain
9:36 PM 59.5 °F 57.6 °F 93% 29.62 in 10.0 mi SSW 16.1 mph 24.2 mph 0.01 in   Overcast
9:55 PM 59.7 °F 57.4 °F 92% 29.62 in 10.0 mi SSW 9.2 mph 19.6 mph 0.01 in   Overcast
9:56 PM 59.5 °F 57.4 °F 93% 29.62 in 10.0 mi SSW 11.5 mph 19.6 mph 0.01 in   Overcast
10:15 PM 59.5 °F 57.2 °F 92% 29.62 in 10.0 mi South 11.5 mph 20.7 mph N/A   Mostly Cloudy
10:39 PM 59.9 °F 57.2 °F 91% 29.63 in 10.0 mi South 10.4 mph 19.6 mph N/A   Overcast
10:57 PM 59.4 °F 57.2 °F 93% 29.63 in 10.0 mi SSW 9.2 mph - N/A   Overcast
11:15 PM 59.4 °F 57.0 °F 92% 29.63 in 10.0 mi South 8.1 mph 17.3 mph N/A   Overcast
11:35 PM 58.8 °F 56.3 °F 91% 29.63 in 10.0 mi South 9.2 mph 18.4 mph N/A   Scattered Clouds
11:36 PM 58.8 °F 56.3 °F 91% 29.63 in 10.0 mi South 9.2 mph 18.4 mph N/A   Scattered Clouds
11:55 PM 59.0 °F 55.9 °F 90% 29.63 in 10.0 mi SSW 6.9 mph 18.4 mph N/A   Mostly Cloudy